STARLINK-11696

Satellite information

Favourite Embed

Satellite Type and Status

PAYLOADIN ORBIT

Key statistics

Satellite STARLINK-11696 at a glance.

Uptime

186

Days in orbit

Revolutions

≈ 15.7

Per day

Orbit

LEO

Low Earth Orbit

Inclination

43.0

Latest

Satellite identification and parameters

Extended collection of information and parameters for STARLINK-11696.

Object identification

Identified? True

Debris? False

Object name: STARLINK-11696

International designator: 2025-124H

Object number (NORAD): 64324

Object ID (CCSDS): 64324

Country: UNITED STATES OF AMERICA (US)

Current information (Y/N): Y

RCS size: LARGE

Orbital parameters

Period: 91.676 minutes

Inclination: 42.999 deg

SMA: 6734.909 km

Apoapsis: 357.76 km

Periapsis: 355.787 km

RAAN: 197.2447 deg

Eccentricy: 0.00014646

Argument of periapsis: 291.9337 deg

Mean anomaly: 68.1375 deg

Mean motion: 15.70743148 rev/day

Mean motion (dot): 0.00234469 rev/day2

B* drag term: 0.0017869275 1/REarth

Two-line elements (TLE)

Creation date: Dec. 12, 2025, 10:14 a.m.

Reference frame: TEME

Reference center: EARTH

Epoch: Dec. 12, 2025, 1:13 a.m. UTC

TLE line 0: 0 STARLINK-11696

TLE line 1: 1 64324U 25124H 25346.05111142 .00234469 00000-0 17869-2 0 9999

TLE line 2: 2 64324 42.9990 197.2447 0001465 291.9337 68.1375 15.70743148 29054

Live tracking on map

Real-time ground track for satellite STARLINK-11696.

In-orbit conjunctions

There are no conjunctions computed for STARLINK-11696, at the moment. Check back to stay up to date, as we update our databases every day.

Go to all conjunctions

Associated space launch

A batch of 23 satellites for the Starlink mega-constellation - SpaceX's project for space-based Internet communication system.

STARLINK-11696 was lifted into orbit during the mission ‘Falcon 9 Block 5 | Starlink Group 12-24’, on board a Falcon 9 space rocket.

The launch took place on June 10, 2025, 1:05 p.m. from Space Launch Complex 40.

For more information about the launch, click the button.

Launch to space Falcon 9 Block 5 | Starlink Group 12-24
Falcon 9 Block 5 | Starlink Group 12-24

Agency: SpaceX

Status: Launch Successful

Launch date: June 10, 2025, 1:05 p.m. UTC

Rocket: Falcon 9

Launch pad: Space Launch Complex 40

Location: Cape Canaveral SFS, FL, USA

...

Latest news about this satellite

News about space launch
Launch Roundup: ULA to launch Kuiper’s second batch of satellites, SpaceX to launch Axiom crew to ISS

SpaceX will launch Axiom Space’s fourth private crewed mission to the International Space Station (ISS)… The post Launch Roundup: ULA to launch Kuiper’s second batch of satellites, SpaceX to launch Axiom crew to ISS appeared first on NASASpaceFlight.com.

News about space launch
Live coverage: SpaceX to launch 23 Starlink satellites on a Falcon 9 rocket from Cape Canaveral

SpaceX will be attempting to land its 460th booster in the midst of the Starlink 12-24 mission. Teams are targeting liftoff from pad 40 at Cape Canaveral Space Force Station at 9:05 a.m. EDT (1305 UTC).


Newsletter sign-up

Weekly statistics, charts and insights to help you stay on top of the space industry.